Time,TemperatureF,DewpointF,PressureIn,WindDirection,WindDirectionDegrees,WindSpeedMPH,WindSpeedGustMPH,Humidity,HourlyPrecipIn,Conditions,Clouds,dailyrainin,SoftwareType,DateUTC
2013-02-11 00:00:00,30.9,20.9,29.72,WSW,250,3.0,15.0,66,0.00,,,0.02,WeatherCatV1.13B119,2013-02-11 06:00:00,
2013-02-11 00:05:00,30.7,20.7,29.72,West,273,7.0,13.0,66,0.00,,,0.00,WeatherCatV1.13B119,2013-02-11 06:05:00,
2013-02-11 00:10:00,30.6,20.6,29.72,West,280,9.0,15.0,66,0.00,,,0.00,WeatherCatV1.13B119,2013-02-11 06:10:00,
2013-02-11 00:15:00,30.6,20.6,29.73,West,265,22.0,22.0,66,0.00,,,0.00,WeatherCatV1.13B119,2013-02-11 06:15:00,
2013-02-11 00:20:00,30.7,20.4,29.73,West,269,8.0,11.0,65,0.00,,,0.00,WeatherCatV1.13B119,2013-02-11 06:20:00,
2013-02-11 00:25:00,30.9,20.5,29.73,West,270,3.0,11.0,65,0.00,,,0.00,WeatherCatV1.13B119,2013-02-11 06:25:00,
2013-02-11 00:30:00,30.9,20.5,29.74,West,279,2.0,16.0,65,0.00,,,0.00,WeatherCatV1.13B119,2013-02-11 06:30:00,
2013-02-11 00:35:00,31.0,20.3,29.74,WNW,303,5.0,12.0,64,0.00,,,0.00,WeatherCatV1.13B119,2013-02-11 06:35:00,
2013-02-11 00:40:00,31.2,20.5,29.74,West,277,7.0,12.0,64,0.00,,,0.00,WeatherCatV1.13B119,2013-02-11 06:40:00,
2013-02-11 00:45:00,31.0,20.3,29.75,WNW,292,2.0,14.0,64,0.00,,,0.00,WeatherCatV1.13B119,2013-02-11 06:45:00,
2013-02-11 00:50:00,31.2,20.1,29.75,WNW,288,6.0,14.0,63,0.00,,,0.00,WeatherCatV1.13B119,2013-02-11 06:50:00,
2013-02-11 00:55:00,31.2,19.7,29.75,South,174,6.0,10.0,62,0.00,,,0.00,WeatherCatV1.13B119,2013-02-11 06:55:00,
2013-02-11 01:00:00,31.2,19.7,29.75,NW,307,4.0,14.0,62,0.00,,,0.00,WeatherCatV1.13B119,2013-02-11 07:00:00,
2013-02-11 01:05:00,31.2,19.7,29.75,WSW,248,9.0,18.0,62,0.00,,,0.00,WeatherCatV1.13B119,2013-02-11 07:05:00,
2013-02-11 01:10:00,31.2,19.7,29.75,WNW,296,2.0,16.0,62,0.00,,,0.00,WeatherCatV1.13B119,2013-02-11 07:10:00,
2013-02-11 01:15:00,31.2,20.1,29.76,West,274,3.0,15.0,63,0.00,,,0.00,WeatherCatV1.13B119,2013-02-11 07:15:00,
2013-02-11 01:20:00,31.2,19.7,29.76,WNW,290,2.0,12.0,62,0.00,,,0.00,WeatherCatV1.13B119,2013-02-11 07:20:00,
2013-02-11 01:25:00,31.0,19.9,29.76,West,277,5.0,11.0,63,0.00,,,0.00,WeatherCatV1.13B119,2013-02-11 07:25:00,
2013-02-11 01:30:00,31.0,20.3,29.77,West,265,6.0,15.0,64,0.00,,,0.00,WeatherCatV1.13B119,2013-02-11 07:30:00,
2013-02-11 01:35:00,31.0,20.6,29.77,WNW,294,5.0,21.0,65,0.00,,,0.00,WeatherCatV1.13B119,2013-02-11 07:35:00,
2013-02-11 01:40:00,31.0,21.3,29.77,West,274,5.0,14.0,67,0.00,,,0.00,WeatherCatV1.13B119,2013-02-11 07:40:00,
2013-02-11 01:45:00,30.9,21.6,29.77,NW,306,4.0,10.0,68,0.00,,,0.00,WeatherCatV1.13B119,2013-02-11 07:45:00,
2013-02-11 01:50:00,30.7,21.8,29.77,WNW,293,7.0,13.0,69,0.00,,,0.00,WeatherCatV1.13B119,2013-02-11 07:50:00,
2013-02-11 01:52:00,30.7,22.1,29.77,West,259,7.0,10.0,70,0.00,,,0.00,WeatherCatV1.13B119,2013-02-11 07:52:00,
2013-02-11 01:57:00,30.6,22.3,29.77,West,259,5.0,9.0,71,0.00,,,0.00,WeatherCatV1.13B119,2013-02-11 07:57:00,
2013-02-11 02:02:00,30.4,22.5,29.78,WSW,248,5.0,10.0,72,0.00,,,0.00,WeatherCatV1.13B119,2013-02-11 08:02:00,
2013-02-11 02:07:00,30.4,22.8,29.78,West,277,2.0,10.0,73,0.00,,,0.00,WeatherCatV1.13B119,2013-02-11 08:07:00,
2013-02-11 02:12:00,30.3,23.0,29.78,WSW,255,2.0,6.0,74,0.00,,,0.00,WeatherCatV1.13B119,2013-02-11 08:12:00,
2013-02-11 02:17:00,30.3,23.0,29.79,West,271,12.0,16.0,74,0.00,,,0.00,WeatherCatV1.13B119,2013-02-11 08:17:00,
2013-02-11 02:22:00,30.3,23.0,29.79,West,262,6.0,14.0,74,0.00,,,0.00,WeatherCatV1.13B119,2013-02-11 08:22:00,
2013-02-11 02:27:00,30.4,23.1,29.79,WSW,245,7.0,14.0,74,0.00,,,0.00,WeatherCatV1.13B119,2013-02-11 08:27:00,
2013-02-11 02:32:00,30.4,22.8,29.80,West,269,11.0,15.0,73,0.00,,,0.00,WeatherCatV1.13B119,2013-02-11 08:32:00,
2013-02-11 02:37:00,30.6,22.7,29.80,West,268,6.0,11.0,72,0.00,,,0.00,WeatherCatV1.13B119,2013-02-11 08:37:00,
2013-02-11 02:42:00,30.6,22.3,29.80,West,281,14.0,15.0,71,0.00,,,0.00,WeatherCatV1.13B119,2013-02-11 08:42:00,
2013-02-11 02:47:00,30.6,22.3,29.81,WSW,252,7.0,16.0,71,0.00,,,0.00,WeatherCatV1.13B119,2013-02-11 08:47:00,
2013-02-11 02:52:00,30.4,21.8,29.81,NNW,347,6.0,16.0,70,0.00,,,0.00,WeatherCatV1.13B119,2013-02-11 08:52:00,
2013-02-11 02:57:00,30.4,21.8,29.81,West,267,9.0,13.0,70,0.00,,,0.00,WeatherCatV1.13B119,2013-02-11 08:57:00,
2013-02-11 03:02:00,30.3,21.4,29.82,NW,314,1.0,16.0,69,0.00,,,0.00,WeatherCatV1.13B119,2013-02-11 09:02:00,
2013-02-11 03:07:00,30.3,21.4,29.82,West,277,5.0,15.0,69,0.00,,,0.00,WeatherCatV1.13B119,2013-02-11 09:07:00,
2013-02-11 03:12:00,30.1,21.2,29.82,SW,232,9.0,15.0,69,0.00,,,0.00,WeatherCatV1.13B119,2013-02-11 09:12:00,
2013-02-11 03:17:00,30.1,21.2,29.82,WNW,292,6.0,7.0,69,0.00,,,0.00,WeatherCatV1.13B119,2013-02-11 09:17:00,
2013-02-11 03:22:00,30.1,21.2,29.82,SW,226,10.0,15.0,69,0.00,,,0.00,WeatherCatV1.13B119,2013-02-11 09:22:00,
2013-02-11 03:27:00,30.0,21.1,29.82,SW,236,2.0,11.0,69,0.00,,,0.00,WeatherCatV1.13B119,2013-02-11 09:27:00,
2013-02-11 03:32:00,30.0,21.1,29.82,WNW,296,5.0,16.0,69,0.00,,,0.00,WeatherCatV1.13B119,2013-02-11 09:32:00,
2013-02-11 03:37:00,29.8,20.5,29.82,WSW,246,2.0,18.0,68,0.00,,,0.00,WeatherCatV1.13B119,2013-02-11 09:37:00,
2013-02-11 03:42:00,29.8,20.9,29.82,NW,304,2.0,10.0,69,0.00,,,0.00,WeatherCatV1.13B119,2013-02-11 09:42:00,
2013-02-11 03:47:00,29.7,20.5,29.82,WNW,290,2.0,18.0,68,0.00,,,0.00,WeatherCatV1.13B119,2013-02-11 09:47:00,
2013-02-11 03:52:00,29.7,20.1,29.82,WSW,255,1.0,11.0,67,0.00,,,0.00,WeatherCatV1.13B119,2013-02-11 09:52:00,
2013-02-11 03:57:00,29.5,19.9,29.82,NW,309,5.0,10.0,67,0.00,,,0.00,WeatherCatV1.13B119,2013-02-11 09:57:00,
2013-02-11 04:02:00,29.5,19.9,29.83,West,279,3.0,12.0,67,0.00,,,0.00,WeatherCatV1.13B119,2013-02-11 10:02:00,
2013-02-11 04:07:00,29.5,20.3,29.83,West,277,3.0,14.0,68,0.00,,,0.00,WeatherCatV1.13B119,2013-02-11 10:07:00,
2013-02-11 04:12:00,29.5,20.3,29.83,NW,315,4.0,16.0,68,0.00,,,0.00,WeatherCatV1.13B119,2013-02-11 10:12:00,
2013-02-11 04:17:00,29.5,20.6,29.85,WNW,300,3.0,11.0,69,0.00,,,0.00,WeatherCatV1.13B119,2013-02-11 10:17:00,
2013-02-11 04:22:00,29.5,20.3,29.85,West,269,4.0,13.0,68,0.00,,,0.00,WeatherCatV1.13B119,2013-02-11 10:22:00,
2013-02-11 04:27:00,29.5,20.3,29.85,West,263,10.0,10.0,68,0.00,,,0.00,WeatherCatV1.13B119,2013-02-11 10:27:00,
2013-02-11 04:32:00,29.5,20.3,29.86,WNW,293,7.0,10.0,68,0.00,,,0.00,WeatherCatV1.13B119,2013-02-11 10:32:00,
2013-02-11 04:37:00,29.5,20.6,29.86,NW,313,13.0,13.0,69,0.00,,,0.00,WeatherCatV1.13B119,2013-02-11 10:37:00,
2013-02-11 04:42:00,29.4,20.2,29.86,West,263,3.0,10.0,68,0.00,,,0.00,WeatherCatV1.13B119,2013-02-11 10:42:00,
2013-02-11 04:47:00,29.4,19.5,29.87,NNW,331,10.0,10.0,66,0.00,,,0.00,WeatherCatV1.13B119,2013-02-11 10:47:00,
2013-02-11 04:52:00,29.3,19.4,29.87,WNW,282,7.0,9.0,66,0.00,,,0.00,WeatherCatV1.13B119,2013-02-11 10:52:00,
2013-02-11 04:57:00,29.1,19.5,29.87,NW,321,8.0,17.0,67,0.00,,,0.00,WeatherCatV1.13B119,2013-02-11 10:57:00,
2013-02-11 05:02:00,29.1,19.5,29.89,West,276,9.0,12.0,67,0.00,,,0.00,WeatherCatV1.13B119,2013-02-11 11:02:00,
2013-02-11 05:07:00,29.1,19.9,29.89,WNW,283,7.0,14.0,68,0.00,,,0.00,WeatherCatV1.13B119,2013-02-11 11:07:00,
2013-02-11 05:12:00,29.1,19.9,29.89,WSW,248,2.0,12.0,68,0.00,,,0.00,WeatherCatV1.13B119,2013-02-11 11:12:00,
2013-02-11 05:17:00,29.0,20.1,29.90,NW,305,2.0,10.0,69,0.00,,,0.00,WeatherCatV1.13B119,2013-02-11 11:17:00,
2013-02-11 05:22:00,29.0,19.8,29.90,West,263,4.0,12.0,68,0.00,,,0.00,WeatherCatV1.13B119,2013-02-11 11:22:00,
2013-02-11 05:27:00,28.8,19.2,29.90,West,280,0.0,7.0,67,0.00,,,0.00,WeatherCatV1.13B119,2013-02-11 11:27:00,
2013-02-11 05:32:00,28.7,19.2,29.91,West,260,3.0,9.0,67,0.00,,,0.00,WeatherCatV1.13B119,2013-02-11 11:32:00,
2013-02-11 05:37:00,28.7,19.5,29.91,WNW,292,2.0,6.0,68,0.00,,,0.00,WeatherCatV1.13B119,2013-02-11 11:37:00,
2013-02-11 05:42:00,28.7,19.5,29.91,West,261,10.0,10.0,68,0.00,,,0.00,WeatherCatV1.13B119,2013-02-11 11:42:00,
2013-02-11 05:47:00,28.7,19.8,29.93,West,274,6.0,13.0,69,0.00,,,0.00,WeatherCatV1.13B119,2013-02-11 11:47:00,
2013-02-11 05:52:00,28.8,19.9,29.93,WSW,238,10.0,11.0,69,0.00,,,0.00,WeatherCatV1.13B119,2013-02-11 11:52:00,
2013-02-11 05:57:00,28.8,19.9,29.93,West,277,4.0,12.0,69,0.00,,,0.00,WeatherCatV1.13B119,2013-02-11 11:57:00,
2013-02-11 06:02:00,29.0,20.1,29.93,WNW,291,6.0,7.0,69,0.00,,,0.00,WeatherCatV1.13B119,2013-02-11 12:02:00,
2013-02-11 06:07:00,29.0,20.1,29.93,West,269,7.0,11.0,69,0.00,,,0.00,WeatherCatV1.13B119,2013-02-11 12:07:00,
2013-02-11 06:12:00,29.0,20.5,29.93,West,259,6.0,16.0,70,0.00,,,0.00,WeatherCatV1.13B119,2013-02-11 12:12:00,
2013-02-11 06:17:00,29.0,20.5,29.93,West,260,3.0,6.0,70,0.00,,,0.00,WeatherCatV1.13B119,2013-02-11 12:17:00,
2013-02-11 06:22:00,29.0,20.8,29.93,West,259,4.0,6.0,71,0.00,,,0.00,WeatherCatV1.13B119,2013-02-11 12:22:00,
2013-02-11 06:27:00,29.1,20.9,29.93,NNW,333,2.0,3.0,71,0.00,,,0.00,WeatherCatV1.13B119,2013-02-11 12:27:00,
2013-02-11 06:32:00,29.1,20.9,29.93,West,281,1.0,5.0,71,0.00,,,0.00,WeatherCatV1.13B119,2013-02-11 12:32:00,
2013-02-11 06:37:00,29.1,20.9,29.93,WNW,295,0.0,5.0,71,0.00,,,0.00,WeatherCatV1.13B119,2013-02-11 12:37:00,
2013-02-11 06:42:00,29.1,20.9,29.93,West,265,1.0,5.0,71,0.00,,,0.00,WeatherCatV1.13B119,2013-02-11 12:42:00,
2013-02-11 06:47:00,29.1,20.9,29.94,WNW,288,3.0,6.0,71,0.00,,,0.00,WeatherCatV1.13B119,2013-02-11 12:47:00,
2013-02-11 06:52:00,29.1,20.9,29.94,West,260,2.0,9.0,71,0.00,,,0.00,WeatherCatV1.13B119,2013-02-11 12:52:00,
2013-02-11 06:57:00,29.3,20.8,29.94,SW,218,3.0,10.0,70,0.00,,,0.00,WeatherCatV1.13B119,2013-02-11 12:57:00,
2013-02-11 07:03:00,29.3,20.4,29.94,West,271,2.0,17.0,69,0.00,,,0.00,WeatherCatV1.13B119,2013-02-11 13:03:00,
2013-02-11 07:08:00,29.3,20.4,29.94,West,268,2.0,10.0,69,0.00,,,0.00,WeatherCatV1.13B119,2013-02-11 13:08:00,
2013-02-11 07:13:00,29.3,20.1,29.94,West,277,6.0,10.0,68,0.00,,,0.00,WeatherCatV1.13B119,2013-02-11 13:13:00,
2013-02-11 07:18:00,29.4,20.2,29.95,West,262,9.0,9.0,68,0.00,,,0.00,WeatherCatV1.13B119,2013-02-11 13:18:00,
2013-02-11 07:23:00,29.4,20.2,29.95,WSW,255,5.0,7.0,68,0.00,,,0.00,WeatherCatV1.13B119,2013-02-11 13:23:00,
2013-02-11 07:24:00,29.4,20.2,29.95,NW,325,6.0,9.0,68,0.00,,,0.00,WeatherCatV1.13B119,2013-02-11 13:24:00,
2013-02-11 07:29:00,29.4,20.2,29.96,West,281,2.0,6.0,68,0.00,,,0.00,WeatherCatV1.13B119,2013-02-11 13:29:00,
2013-02-11 07:34:00,29.3,20.1,29.96,WSW,255,4.0,12.0,68,0.00,,,0.00,WeatherCatV1.13B119,2013-02-11 13:34:00,
2013-02-11 07:39:00,29.3,20.1,29.96,West,267,6.0,9.0,68,0.00,,,0.00,WeatherCatV1.13B119,2013-02-11 13:39:00,
2013-02-11 07:44:00,29.3,20.1,29.97,WSW,253,5.0,7.0,68,0.00,,,0.00,WeatherCatV1.13B119,2013-02-11 13:44:00,
2013-02-11 07:49:00,29.3,20.1,29.97,WNW,291,6.0,11.0,68,0.00,,,0.00,WeatherCatV1.13B119,2013-02-11 13:49:00,
2013-02-11 07:54:00,29.3,19.7,29.97,WNW,293,2.0,6.0,67,0.00,,,0.00,WeatherCatV1.13B119,2013-02-11 13:54:00,
2013-02-11 07:59:00,29.3,20.1,29.97,NW,319,0.0,5.0,68,0.00,,,0.00,WeatherCatV1.13B119,2013-02-11 13:59:00,
2013-02-11 08:04:00,29.3,20.1,29.97,WNW,287,1.0,10.0,68,0.00,,,0.00,WeatherCatV1.13B119,2013-02-11 14:04:00,
2013-02-11 08:09:00,29.4,19.8,29.97,North,5,5.0,7.0,67,0.00,,,0.00,WeatherCatV1.13B119,2013-02-11 14:09:00,
2013-02-11 08:14:00,29.4,19.8,29.98,WNW,303,5.0,7.0,67,0.00,,,0.00,WeatherCatV1.13B119,2013-02-11 14:14:00,
2013-02-11 08:19:00,29.4,19.8,29.98,West,259,1.0,10.0,67,0.00,,,0.00,WeatherCatV1.13B119,2013-02-11 14:19:00,
2013-02-11 08:24:00,29.4,19.8,29.98,WNW,295,4.0,9.0,67,0.00,,,0.00,WeatherCatV1.13B119,2013-02-11 14:24:00,
2013-02-11 08:29:00,29.4,20.2,29.99,WSW,250,4.0,5.0,68,0.00,,,0.00,WeatherCatV1.13B119,2013-02-11 14:29:00,
2013-02-11 08:34:00,29.5,19.9,29.99,West,281,1.0,8.0,67,0.00,,,0.00,WeatherCatV1.13B119,2013-02-11 14:34:00,
2013-02-11 08:39:00,29.5,19.9,29.99,NW,305,2.0,10.0,67,0.00,,,0.00,WeatherCatV1.13B119,2013-02-11 14:39:00,
2013-02-11 08:44:00,29.5,19.9,29.99,WNW,283,2.0,12.0,67,0.00,,,0.00,WeatherCatV1.13B119,2013-02-11 14:44:00,
2013-02-11 08:49:00,29.5,19.9,29.99,West,277,3.0,5.0,67,0.00,,,0.00,WeatherCatV1.13B119,2013-02-11 14:49:00,
2013-02-11 08:54:00,29.5,19.9,29.99,West,278,3.0,5.0,67,0.00,,,0.00,WeatherCatV1.13B119,2013-02-11 14:54:00,
2013-02-11 08:59:00,29.7,20.1,30.00,WSW,252,3.0,10.0,67,0.00,,,0.00,WeatherCatV1.13B119,2013-02-11 14:59:00,
2013-02-11 09:04:00,29.8,20.2,30.00,NNW,338,4.0,7.0,67,0.00,,,0.00,WeatherCatV1.13B119,2013-02-11 15:04:00,
2013-02-11 09:09:00,29.8,19.5,30.00,WSW,256,4.0,10.0,65,0.00,,,0.00,WeatherCatV1.13B119,2013-02-11 15:09:00,
2013-02-11 09:14:00,30.0,19.7,30.01,West,267,0.0,5.0,65,0.00,,,0.00,WeatherCatV1.13B119,2013-02-11 15:14:00,
2013-02-11 09:19:00,30.0,19.7,30.01,West,263,2.0,12.0,65,0.00,,,0.00,WeatherCatV1.13B119,2013-02-11 15:19:00,
2013-02-11 09:24:00,30.1,19.8,30.01,West,275,3.0,12.0,65,0.00,,,0.00,WeatherCatV1.13B119,2013-02-11 15:24:00,
2013-02-11 09:29:00,30.1,19.8,30.02,WSW,258,6.0,12.0,65,0.00,,,0.00,WeatherCatV1.13B119,2013-02-11 15:29:00,
2013-02-11 09:34:00,30.1,20.1,30.02,West,259,6.0,13.0,66,0.00,,,0.00,WeatherCatV1.13B119,2013-02-11 15:34:00,
2013-02-11 09:39:00,30.1,20.1,30.02,SW,235,2.0,7.0,66,0.00,,,0.00,WeatherCatV1.13B119,2013-02-11 15:39:00,
2013-02-11 09:44:00,30.1,19.8,30.03,WSW,247,1.0,8.0,65,0.00,,,0.00,WeatherCatV1.13B119,2013-02-11 15:44:00,
2013-02-11 09:49:00,30.3,19.6,30.03,West,263,4.0,9.0,64,0.00,,,0.00,WeatherCatV1.13B119,2013-02-11 15:49:00,
2013-02-11 09:54:00,30.3,19.6,30.03,West,263,3.0,4.0,64,0.00,,,0.00,WeatherCatV1.13B119,2013-02-11 15:54:00,
2013-02-11 09:59:00,30.4,19.7,30.03,NW,317,4.0,10.0,64,0.00,,,0.00,WeatherCatV1.13B119,2013-02-11 15:59:00,
2013-02-11 10:04:00,30.6,19.9,30.03,West,277,2.0,6.0,64,0.00,,,0.00,WeatherCatV1.13B119,2013-02-11 16:04:00,
2013-02-11 10:09:00,30.9,20.2,30.03,NW,312,5.0,5.0,64,0.00,,,0.00,WeatherCatV1.13B119,2013-02-11 16:09:00,
2013-02-11 10:15:00,31.0,19.9,30.03,NNW,331,6.0,6.0,63,0.00,,,0.00,WeatherCatV1.13B119,2013-02-11 16:15:00,
2013-02-11 10:20:00,31.0,19.5,30.03,WNW,286,2.0,12.0,62,0.00,,,0.00,WeatherCatV1.13B119,2013-02-11 16:20:00,
2013-02-11 10:25:00,30.9,19.8,30.03,NW,322,13.0,13.0,63,0.00,,,0.00,WeatherCatV1.13B119,2013-02-11 16:25:00,
2013-02-11 10:30:00,31.0,19.9,30.04,WNW,292,3.0,7.0,63,0.00,,,0.00,WeatherCatV1.13B119,2013-02-11 16:30:00,
2013-02-11 10:35:00,31.3,20.6,30.04,West,271,0.0,4.0,64,0.00,,,0.00,WeatherCatV1.13B119,2013-02-11 16:35:00,
2013-02-11 10:40:00,31.6,20.5,30.04,WNW,302,4.0,6.0,63,0.00,,,0.00,WeatherCatV1.13B119,2013-02-11 16:40:00,
2013-02-11 10:45:00,31.9,20.4,30.03,West,263,5.0,10.0,62,0.00,,,0.00,WeatherCatV1.13B119,2013-02-11 16:45:00,
2013-02-11 10:50:00,32.1,19.8,30.03,WSW,244,2.0,9.0,60,0.00,,,0.00,WeatherCatV1.13B119,2013-02-11 16:50:00,
2013-02-11 10:55:00,31.9,20.0,30.03,NW,310,3.0,9.0,61,0.00,,,0.00,WeatherCatV1.13B119,2013-02-11 16:55:00,
2013-02-11 11:00:00,32.1,19.8,30.04,NNE,23,4.0,12.0,60,0.00,,,0.00,WeatherCatV1.13B119,2013-02-11 17:00:00,
2013-02-11 11:05:00,32.1,19.8,30.04,NW,306,4.0,15.0,60,0.00,,,0.00,WeatherCatV1.13B119,2013-02-11 17:05:00,
2013-02-11 11:10:00,32.2,20.3,30.04,NW,326,6.0,13.0,61,0.00,,,0.00,WeatherCatV1.13B119,2013-02-11 17:10:00,
2013-02-11 11:15:00,32.4,20.1,30.04,WNW,289,4.0,12.0,60,0.00,,,0.00,WeatherCatV1.13B119,2013-02-11 17:15:00,
2013-02-11 11:20:00,32.5,20.2,30.04,West,259,4.0,6.0,60,0.00,,,0.00,WeatherCatV1.13B119,2013-02-11 17:20:00,
2013-02-11 11:25:00,32.9,20.2,30.04,West,264,3.0,8.0,59,0.00,,,0.00,WeatherCatV1.13B119,2013-02-11 17:25:00,
2013-02-11 11:30:00,33.1,20.4,30.04,West,281,5.0,5.0,59,0.00,,,0.00,WeatherCatV1.13B119,2013-02-11 17:30:00,
2013-02-11 11:35:00,33.2,20.4,30.04,West,275,0.0,5.0,59,0.00,,,0.00,WeatherCatV1.13B119,2013-02-11 17:35:00,
2013-02-11 11:40:00,33.4,20.2,30.04,WSW,254,4.0,7.0,58,0.00,,,0.00,WeatherCatV1.13B119,2013-02-11 17:40:00,
2013-02-11 11:45:00,33.5,20.3,30.05,NNW,348,2.0,8.0,58,0.00,,,0.00,WeatherCatV1.13B119,2013-02-11 17:45:00,
2013-02-11 11:50:00,33.8,20.2,30.05,West,261,1.0,9.0,57,0.00,,,0.00,WeatherCatV1.13B119,2013-02-11 17:50:00,
2013-02-11 11:55:00,34.1,20.5,30.05,WNW,291,1.0,7.0,57,0.00,,,0.00,WeatherCatV1.13B119,2013-02-11 17:55:00,
2013-02-11 12:00:00,34.6,21.0,30.04,West,280,1.0,5.0,57,0.00,,,0.00,WeatherCatV1.13B119,2013-02-11 18:00:00,
2013-02-11 12:05:00,35.0,21.3,30.04,WSW,250,2.0,5.0,57,0.00,,,0.00,WeatherCatV1.13B119,2013-02-11 18:05:00,
2013-02-11 12:10:00,35.3,21.2,30.04,NW,317,10.0,11.0,56,0.00,,,0.00,WeatherCatV1.13B119,2013-02-11 18:10:00,
2013-02-11 12:15:00,35.2,20.7,30.04,West,273,0.0,9.0,55,0.00,,,0.00,WeatherCatV1.13B119,2013-02-11 18:15:00,
2013-02-11 12:20:00,35.3,20.8,30.04,WSW,252,5.0,10.0,55,0.00,,,0.00,WeatherCatV1.13B119,2013-02-11 18:20:00,
2013-02-11 12:25:00,35.3,20.3,30.04,West,261,5.0,6.0,54,0.00,,,0.00,WeatherCatV1.13B119,2013-02-11 18:25:00,
2013-02-11 12:30:00,35.2,20.7,30.03,West,266,8.0,10.0,55,0.00,,,0.00,WeatherCatV1.13B119,2013-02-11 18:30:00,
2013-02-11 12:35:00,35.3,20.8,30.03,West,274,6.0,7.0,55,0.00,,,0.00,WeatherCatV1.13B119,2013-02-11 18:35:00,
2013-02-11 12:40:00,35.5,20.5,30.03,West,276,3.0,3.0,54,0.00,,,0.00,WeatherCatV1.13B119,2013-02-11 18:40:00,
2013-02-11 12:45:00,35.9,21.3,30.03,West,261,1.0,5.0,55,0.00,,,0.00,WeatherCatV1.13B119,2013-02-11 18:45:00,
2013-02-11 12:50:00,36.3,21.3,30.03,WNW,290,5.0,13.0,54,0.00,,,0.00,WeatherCatV1.13B119,2013-02-11 18:50:00,
2013-02-11 12:55:00,36.5,21.0,30.03,West,267,10.0,10.0,53,0.00,,,0.00,WeatherCatV1.13B119,2013-02-11 18:55:00,
2013-02-11 13:00:00,36.2,21.2,30.03,West,260,4.0,5.0,54,0.00,,,0.00,WeatherCatV1.13B119,2013-02-11 19:00:00,
2013-02-11 13:05:00,36.6,21.5,30.03,West,279,1.0,7.0,54,0.00,,,0.00,WeatherCatV1.13B119,2013-02-11 19:05:00,
2013-02-11 13:10:00,37.0,21.9,30.03,WNW,289,4.0,10.0,54,0.00,,,0.00,WeatherCatV1.13B119,2013-02-11 19:10:00,
2013-02-11 13:15:00,37.2,21.2,30.03,NW,305,6.0,10.0,52,0.00,,,0.00,WeatherCatV1.13B119,2013-02-11 19:15:00,
2013-02-11 13:20:00,36.9,20.9,30.03,West,259,6.0,6.0,52,0.00,,,0.00,WeatherCatV1.13B119,2013-02-11 19:20:00,
2013-02-11 13:25:00,36.9,21.8,30.03,WSW,246,3.0,7.0,54,0.00,,,0.00,WeatherCatV1.13B119,2013-02-11 19:25:00,
2013-02-11 13:30:00,36.9,20.9,30.03,WSW,256,2.0,4.0,52,0.00,,,0.00,WeatherCatV1.13B119,2013-02-11 19:30:00,
2013-02-11 13:35:00,36.8,20.8,30.03,NW,316,2.0,14.0,52,0.00,,,0.00,WeatherCatV1.13B119,2013-02-11 19:35:00,
2013-02-11 13:40:00,36.5,21.0,30.03,West,275,4.0,4.0,53,0.00,,,0.00,WeatherCatV1.13B119,2013-02-11 19:40:00,
2013-02-11 13:45:00,36.2,21.2,30.04,West,274,4.0,5.0,54,0.00,,,0.00,WeatherCatV1.13B119,2013-02-11 19:45:00,
2013-02-11 13:50:00,36.2,21.2,30.04,West,261,5.0,9.0,54,0.00,,,0.00,WeatherCatV1.13B119,2013-02-11 19:50:00,
2013-02-11 13:55:00,36.0,21.0,30.04,WSW,247,0.0,7.0,54,0.00,,,0.00,WeatherCatV1.13B119,2013-02-11 19:55:00,
2013-02-11 14:00:00,35.9,20.9,30.05,WSW,257,8.0,8.0,54,0.00,,,0.00,WeatherCatV1.13B119,2013-02-11 20:00:00,
2013-02-11 14:05:00,35.6,21.0,30.05,SSW,205,3.0,10.0,55,0.00,,,0.00,WeatherCatV1.13B119,2013-02-11 20:05:00,
2013-02-11 14:10:00,35.2,21.5,30.05,WSW,244,0.0,4.0,57,0.00,,,0.00,WeatherCatV1.13B119,2013-02-11 20:10:00,
2013-02-11 14:15:00,35.0,20.9,30.05,West,259,2.0,6.0,56,0.00,,,0.00,WeatherCatV1.13B119,2013-02-11 20:15:00,
2013-02-11 14:20:00,35.0,21.3,30.05,West,261,2.0,4.0,57,0.00,,,0.00,WeatherCatV1.13B119,2013-02-11 20:20:00,
2013-02-11 14:25:00,35.2,21.5,30.05,WSW,250,2.0,5.0,57,0.00,,,0.00,WeatherCatV1.13B119,2013-02-11 20:25:00,
2013-02-11 14:30:00,35.3,21.6,30.04,West,272,3.0,7.0,57,0.00,,,0.00,WeatherCatV1.13B119,2013-02-11 20:30:00,
2013-02-11 14:35:00,35.2,21.5,30.04,NNW,335,1.0,6.0,57,0.00,,,0.00,WeatherCatV1.13B119,2013-02-11 20:35:00,
2013-02-11 14:40:00,35.2,21.5,30.04,West,270,3.0,9.0,57,0.00,,,0.00,WeatherCatV1.13B119,2013-02-11 20:40:00,
2013-02-11 14:45:00,35.2,21.5,30.04,West,260,6.0,6.0,57,0.00,,,0.00,WeatherCatV1.13B119,2013-02-11 20:45:00,
2013-02-11 14:50:00,35.2,21.9,30.04,WSW,257,3.0,11.0,58,0.00,,,0.00,WeatherCatV1.13B119,2013-02-11 20:50:00,
2013-02-11 14:55:00,35.3,22.0,30.04,West,259,2.0,3.0,58,0.00,,,0.00,WeatherCatV1.13B119,2013-02-11 20:55:00,
2013-02-11 15:00:00,35.6,22.3,30.03,West,265,9.0,9.0,58,0.00,,,0.00,WeatherCatV1.13B119,2013-02-11 21:00:00,
2013-02-11 15:05:00,35.8,21.7,30.03,West,261,3.0,9.0,56,0.00,,,0.00,WeatherCatV1.13B119,2013-02-11 21:05:00,
2013-02-11 15:10:00,35.5,21.8,30.03,WSW,256,3.0,8.0,57,0.00,,,0.00,WeatherCatV1.13B119,2013-02-11 21:10:00,
2013-02-11 15:15:00,35.6,21.9,30.03,NW,319,2.0,10.0,57,0.00,,,0.00,WeatherCatV1.13B119,2013-02-11 21:15:00,
2013-02-11 15:20:00,36.0,21.8,30.03,West,275,6.0,10.0,56,0.00,,,0.00,WeatherCatV1.13B119,2013-02-11 21:20:00,
2013-02-11 15:25:00,35.8,21.7,30.03,West,262,0.0,5.0,56,0.00,,,0.00,WeatherCatV1.13B119,2013-02-11 21:25:00,
2013-02-11 15:30:00,35.5,21.8,30.03,West,261,6.0,7.0,57,0.00,,,0.00,WeatherCatV1.13B119,2013-02-11 21:30:00,
2013-02-11 15:35:00,35.2,21.5,30.03,West,265,2.0,5.0,57,0.00,,,0.00,WeatherCatV1.13B119,2013-02-11 21:35:00,
2013-02-11 15:40:00,34.9,21.6,30.03,West,268,0.0,4.0,58,0.00,,,0.00,WeatherCatV1.13B119,2013-02-11 21:40:00,
2013-02-11 15:45:00,35.0,21.7,30.03,West,261,1.0,7.0,58,0.00,,,0.00,WeatherCatV1.13B119,2013-02-11 21:45:00,
2013-02-11 15:50:00,35.0,21.7,30.03,West,260,4.0,5.0,58,0.00,,,0.00,WeatherCatV1.13B119,2013-02-11 21:50:00,
2013-02-11 15:55:00,35.3,21.6,30.03,West,267,4.0,6.0,57,0.00,,,0.00,WeatherCatV1.13B119,2013-02-11 21:55:00,
2013-02-11 16:00:00,35.8,22.1,30.03,WSW,252,2.0,9.0,57,0.00,,,0.00,WeatherCatV1.13B119,2013-02-11 22:00:00,
2013-02-11 16:05:00,36.0,21.8,30.03,West,265,1.0,5.0,56,0.00,,,0.00,WeatherCatV1.13B119,2013-02-11 22:05:00,
2013-02-11 16:10:00,35.9,21.8,30.03,WSW,256,4.0,4.0,56,0.00,,,0.00,WeatherCatV1.13B119,2013-02-11 22:10:00,
2013-02-11 16:15:00,35.6,21.9,30.03,NW,318,5.0,7.0,57,0.00,,,0.00,WeatherCatV1.13B119,2013-02-11 22:15:00,
2013-02-11 16:20:00,35.5,21.8,30.03,WNW,290,2.0,4.0,57,0.00,,,0.00,WeatherCatV1.13B119,2013-02-11 22:20:00,
2013-02-11 16:25:00,35.8,22.1,30.03,West,281,1.0,3.0,57,0.00,,,0.00,WeatherCatV1.13B119,2013-02-11 22:25:00,
2013-02-11 16:30:00,36.0,21.8,30.03,West,277,2.0,7.0,56,0.00,,,0.00,WeatherCatV1.13B119,2013-02-11 22:30:00,
2013-02-11 16:35:00,35.9,21.3,30.03,NW,309,1.0,5.0,55,0.00,,,0.00,WeatherCatV1.13B119,2013-02-11 22:35:00,
2013-02-11 16:40:00,35.5,21.4,30.03,NW,317,2.0,10.0,56,0.00,,,0.00,WeatherCatV1.13B119,2013-02-11 22:40:00,
2013-02-11 16:45:00,35.0,21.3,30.03,NNW,347,0.0,5.0,57,0.00,,,0.00,WeatherCatV1.13B119,2013-02-11 22:45:00,
2013-02-11 16:50:00,34.6,21.4,30.03,NW,323,0.0,4.0,58,0.00,,,0.00,WeatherCatV1.13B119,2013-02-11 22:50:00,
2013-02-11 16:55:00,34.3,21.5,30.03,NNW,336,2.0,10.0,59,0.00,,,0.00,WeatherCatV1.13B119,2013-02-11 22:55:00,
2013-02-11 17:00:00,34.1,21.7,30.03,North,349,8.0,10.0,60,0.00,,,0.00,WeatherCatV1.13B119,2013-02-11 23:00:00,
2013-02-11 17:05:00,34.0,21.6,30.03,NW,318,5.0,7.0,60,0.00,,,0.00,WeatherCatV1.13B119,2013-02-11 23:05:00,
2013-02-11 17:10:00,33.8,21.8,30.03,NW,311,0.0,4.0,61,0.00,,,0.00,WeatherCatV1.13B119,2013-02-11 23:10:00,
2013-02-11 17:15:00,33.7,21.7,30.03,NW,309,0.0,5.0,61,0.00,,,0.00,WeatherCatV1.13B119,2013-02-11 23:15:00,
2013-02-11 17:20:00,33.5,21.5,30.03,NW,320,0.0,5.0,61,0.00,,,0.00,WeatherCatV1.13B119,2013-02-11 23:20:00,
2013-02-11 17:25:00,33.4,21.4,30.03,NW,319,1.0,4.0,61,0.00,,,0.00,WeatherCatV1.13B119,2013-02-11 23:25:00,
2013-02-11 17:30:00,33.2,21.6,30.03,NW,316,0.0,5.0,62,0.00,,,0.00,WeatherCatV1.13B119,2013-02-11 23:30:00,
2013-02-11 17:35:00,33.1,21.9,30.03,NW,319,1.0,9.0,63,0.00,,,0.00,WeatherCatV1.13B119,2013-02-11 23:35:00,
2013-02-11 17:40:00,32.9,21.7,30.03,NW,322,0.0,3.0,63,0.00,,,0.00,WeatherCatV1.13B119,2013-02-11 23:40:00,
2013-02-11 17:45:00,32.8,21.6,30.03,NW,321,2.0,2.0,63,0.00,,,0.00,WeatherCatV1.13B119,2013-02-11 23:45:00,
2013-02-11 17:50:00,32.7,21.9,30.03,NW,321,2.0,4.0,64,0.00,,,0.00,WeatherCatV1.13B119,2013-02-11 23:50:00,
2013-02-11 17:55:00,32.4,21.6,30.03,NW,319,2.0,5.0,64,0.00,,,0.00,WeatherCatV1.13B119,2013-02-11 23:55:00,
2013-02-11 18:00:00,32.2,21.4,30.04,NW,319,2.0,2.0,64,0.00,,,0.00,WeatherCatV1.13B119,2013-02-12 00:00:00,
2013-02-11 18:05:00,32.1,21.7,30.04,NW,320,1.0,2.0,65,0.00,,,0.00,WeatherCatV1.13B119,2013-02-12 00:05:00,
2013-02-11 18:10:00,31.9,21.5,30.04,NW,320,0.0,3.0,65,0.00,,,0.00,WeatherCatV1.13B119,2013-02-12 00:10:00,
2013-02-11 18:15:00,31.8,21.4,30.04,NW,319,2.0,4.0,65,0.00,,,0.00,WeatherCatV1.13B119,2013-02-12 00:15:00,
2013-02-11 18:20:00,31.6,21.6,30.04,NW,320,0.0,4.0,66,0.00,,,0.00,WeatherCatV1.13B119,2013-02-12 00:20:00,
2013-02-11 18:25:00,31.5,21.5,30.04,NW,320,0.0,2.0,66,0.00,,,0.00,WeatherCatV1.13B119,2013-02-12 00:25:00,
2013-02-11 18:30:00,31.3,21.3,30.05,NW,319,0.0,5.0,66,0.00,,,0.00,WeatherCatV1.13B119,2013-02-12 00:30:00,
2013-02-11 18:35:00,31.3,21.6,30.05,NW,321,0.0,1.0,67,0.00,,,0.00,WeatherCatV1.13B119,2013-02-12 00:35:00,
2013-02-11 18:40:00,31.0,21.3,30.05,NW,321,1.0,4.0,67,0.00,,,0.00,WeatherCatV1.13B119,2013-02-12 00:40:00,
2013-02-11 18:45:00,30.9,21.3,30.06,NW,323,2.0,4.0,67,0.00,,,0.00,WeatherCatV1.13B119,2013-02-12 00:45:00,
2013-02-11 18:50:00,30.7,21.4,30.06,NW,323,0.0,0.0,68,0.00,,,0.00,WeatherCatV1.13B119,2013-02-12 00:50:00,
2013-02-11 18:55:00,30.6,21.3,30.06,NW,323,0.0,4.0,68,0.00,,,0.00,WeatherCatV1.13B119,2013-02-12 00:55:00,
2013-02-11 19:00:00,30.6,21.3,30.07,NW,323,2.0,2.0,68,0.00,,,0.00,WeatherCatV1.13B119,2013-02-12 01:00:00,
2013-02-11 19:05:00,30.4,21.5,30.07,NW,323,0.0,2.0,69,0.00,,,0.00,WeatherCatV1.13B119,2013-02-12 01:05:00,
2013-02-11 19:10:00,30.3,21.4,30.07,NW,323,2.0,3.0,69,0.00,,,0.00,WeatherCatV1.13B119,2013-02-12 01:10:00,
2013-02-11 19:15:00,30.1,21.2,30.07,NW,323,0.0,1.0,69,0.00,,,0.00,WeatherCatV1.13B119,2013-02-12 01:15:00,
2013-02-11 19:20:00,30.0,21.4,30.07,NW,323,0.0,0.0,70,0.00,,,0.00,WeatherCatV1.13B119,2013-02-12 01:20:00,
2013-02-11 19:25:00,29.7,21.1,30.07,NW,323,1.0,1.0,70,0.00,,,0.00,WeatherCatV1.13B119,2013-02-12 01:25:00,
2013-02-11 19:30:00,29.5,20.9,30.07,NW,324,0.0,2.0,70,0.00,,,0.00,WeatherCatV1.13B119,2013-02-12 01:30:00,
2013-02-11 19:35:00,29.4,21.2,30.07,NW,324,0.0,3.0,71,0.00,,,0.00,WeatherCatV1.13B119,2013-02-12 01:35:00,
2013-02-11 19:40:00,29.1,20.9,30.07,NW,324,0.0,2.0,71,0.00,,,0.00,WeatherCatV1.13B119,2013-02-12 01:40:00,
2013-02-11 19:45:00,29.1,21.2,30.07,NW,324,0.0,2.0,72,0.00,,,0.00,WeatherCatV1.13B119,2013-02-12 01:45:00,
2013-02-11 19:50:00,29.0,21.1,30.07,NW,324,0.0,2.0,72,0.00,,,0.00,WeatherCatV1.13B119,2013-02-12 01:50:00,
2013-02-11 19:55:00,28.8,20.9,30.07,NW,324,2.0,3.0,72,0.00,,,0.00,WeatherCatV1.13B119,2013-02-12 01:55:00,
2013-02-11 20:00:00,28.7,20.8,30.07,NW,324,0.0,2.0,72,0.00,,,0.00,WeatherCatV1.13B119,2013-02-12 02:00:00,
2013-02-11 20:05:00,28.5,21.0,30.07,NNW,338,1.0,3.0,73,0.00,,,0.00,WeatherCatV1.13B119,2013-02-12 02:05:00,
2013-02-11 20:10:00,28.5,21.0,30.07,NNW,338,2.0,2.0,73,0.00,,,0.00,WeatherCatV1.13B119,2013-02-12 02:10:00,
2013-02-11 20:15:00,28.4,20.9,30.07,NNW,338,3.0,3.0,73,0.00,,,0.00,WeatherCatV1.13B119,2013-02-12 02:15:00,
2013-02-11 20:20:00,28.2,20.7,30.07,NNW,338,0.0,2.0,73,0.00,,,0.00,WeatherCatV1.13B119,2013-02-12 02:20:00,
2013-02-11 20:25:00,28.2,20.7,30.07,NNW,338,1.0,3.0,73,0.00,,,0.00,WeatherCatV1.13B119,2013-02-12 02:25:00,
2013-02-11 20:30:00,28.1,20.6,30.07,NNW,338,1.0,4.0,73,0.00,,,0.00,WeatherCatV1.13B119,2013-02-12 02:30:00,
2013-02-11 20:35:00,28.1,20.6,30.07,NNW,338,0.0,4.0,73,0.00,,,0.00,WeatherCatV1.13B119,2013-02-12 02:35:00,
2013-02-11 20:40:00,27.9,20.4,30.07,NNW,338,0.0,1.0,73,0.00,,,0.00,WeatherCatV1.13B119,2013-02-12 02:40:00,
2013-02-11 20:45:00,27.8,20.6,30.07,NNW,338,0.0,0.0,74,0.00,,,0.00,WeatherCatV1.13B119,2013-02-12 02:45:00,
2013-02-11 20:50:00,27.6,20.4,30.07,NNW,338,0.0,0.0,74,0.00,,,0.00,WeatherCatV1.13B119,2013-02-12 02:50:00,
2013-02-11 20:55:00,27.5,20.3,30.07,NNW,338,0.0,0.0,74,0.00,,,0.00,WeatherCatV1.13B119,2013-02-12 02:55:00,
2013-02-11 21:00:00,27.5,20.3,30.07,NNW,338,0.0,1.0,74,0.00,,,0.00,WeatherCatV1.13B119,2013-02-12 03:00:00,
2013-02-11 21:05:00,27.5,20.3,30.07,NNW,338,0.0,0.0,74,0.00,,,0.00,WeatherCatV1.13B119,2013-02-12 03:05:00,
2013-02-11 21:10:00,27.3,20.1,30.07,NNW,338,0.0,0.0,74,0.00,,,0.00,WeatherCatV1.13B119,2013-02-12 03:10:00,
2013-02-11 21:15:00,27.3,20.1,30.07,NNW,338,0.0,0.0,74,0.00,,,0.00,WeatherCatV1.13B119,2013-02-12 03:15:00,
2013-02-11 21:20:00,27.3,20.1,30.07,NNW,338,0.0,0.0,74,0.00,,,0.00,WeatherCatV1.13B119,2013-02-12 03:20:00,
2013-02-11 21:25:00,27.3,20.1,30.07,NNW,338,0.0,0.0,74,0.00,,,0.00,WeatherCatV1.13B119,2013-02-12 03:25:00,
2013-02-11 21:30:00,27.2,20.0,30.07,NNW,338,0.0,0.0,74,0.00,,,0.00,WeatherCatV1.13B119,2013-02-12 03:30:00,
2013-02-11 21:35:00,27.2,20.0,30.07,NNW,338,0.0,0.0,74,0.00,,,0.00,WeatherCatV1.13B119,2013-02-12 03:35:00,
2013-02-11 21:40:00,27.0,19.8,30.07,NNW,338,0.0,0.0,74,0.00,,,0.00,WeatherCatV1.13B119,2013-02-12 03:40:00,
2013-02-11 21:45:00,27.0,20.2,30.08,NNW,338,0.0,1.0,75,0.00,,,0.00,WeatherCatV1.13B119,2013-02-12 03:45:00,
2013-02-11 21:50:00,26.9,20.1,30.08,NNW,338,0.0,0.0,75,0.00,,,0.00,WeatherCatV1.13B119,2013-02-12 03:50:00,
2013-02-11 21:55:00,26.9,20.4,30.08,NNW,338,0.0,0.0,76,0.00,,,0.00,WeatherCatV1.13B119,2013-02-12 03:55:00,
2013-02-11 22:00:00,26.9,20.4,30.08,NNW,338,0.0,0.0,76,0.00,,,0.00,WeatherCatV1.13B119,2013-02-12 04:00:00,
2013-02-11 22:05:00,26.9,20.1,30.08,NNW,338,0.0,0.0,75,0.00,,,0.00,WeatherCatV1.13B119,2013-02-12 04:05:00,
2013-02-11 22:10:00,26.7,20.2,30.08,NNW,338,0.0,0.0,76,0.00,,,0.00,WeatherCatV1.13B119,2013-02-12 04:10:00,
2013-02-11 22:15:00,26.6,20.1,30.08,NNW,338,0.0,0.0,76,0.00,,,0.00,WeatherCatV1.13B119,2013-02-12 04:15:00,
2013-02-11 22:20:00,26.4,20.2,30.08,NNW,338,0.0,0.0,77,0.00,,,0.00,WeatherCatV1.13B119,2013-02-12 04:20:00,
2013-02-11 22:25:00,26.3,20.1,30.08,NNW,338,0.0,0.0,77,0.00,,,0.00,WeatherCatV1.13B119,2013-02-12 04:25:00,
2013-02-11 22:30:00,26.1,19.9,30.08,NNW,338,0.0,0.0,77,0.00,,,0.00,WeatherCatV1.13B119,2013-02-12 04:30:00,
2013-02-11 22:35:00,26.0,19.8,30.08,NNW,338,0.0,0.0,77,0.00,,,0.00,WeatherCatV1.13B119,2013-02-12 04:35:00,
2013-02-11 22:40:00,26.0,19.8,30.08,NNW,338,0.0,0.0,77,0.00,,,0.00,WeatherCatV1.13B119,2013-02-12 04:40:00,
2013-02-11 22:45:00,25.8,19.9,30.09,NNW,338,0.0,0.0,78,0.00,,,0.00,WeatherCatV1.13B119,2013-02-12 04:45:00,
2013-02-11 22:50:00,25.8,19.9,30.09,NNW,338,0.0,0.0,78,0.00,,,0.00,WeatherCatV1.13B119,2013-02-12 04:50:00,
2013-02-11 22:55:00,25.8,19.9,30.09,NNW,338,0.0,0.0,78,0.00,,,0.00,WeatherCatV1.13B119,2013-02-12 04:55:00,
2013-02-11 23:00:00,25.7,19.8,30.09,NNW,338,0.0,0.0,78,0.00,,,0.00,WeatherCatV1.13B119,2013-02-12 05:00:00,
2013-02-11 23:05:00,25.7,19.8,30.09,NNW,338,0.0,0.0,78,0.00,,,0.00,WeatherCatV1.13B119,2013-02-12 05:05:00,
2013-02-11 23:10:00,25.7,19.8,30.09,NNW,338,0.0,1.0,78,0.00,,,0.00,WeatherCatV1.13B119,2013-02-12 05:10:00,
2013-02-11 23:15:00,25.7,19.8,30.09,NNW,338,0.0,0.0,78,0.00,,,0.00,WeatherCatV1.13B119,2013-02-12 05:15:00,
2013-02-11 23:16:00,25.7,19.8,30.09,NNW,338,0.0,0.0,78,0.00,,,0.00,WeatherCatV1.13B119,2013-02-12 05:16:00,
2013-02-11 23:21:00,25.7,19.8,30.09,NNW,338,0.0,2.0,78,0.00,,,0.00,WeatherCatV1.13B119,2013-02-12 05:21:00,
2013-02-11 23:26:00,25.6,19.7,30.09,NNW,337,0.0,1.0,78,0.00,,,0.00,WeatherCatV1.13B119,2013-02-12 05:26:00,
2013-02-11 23:31:00,25.4,19.5,30.09,WNW,292,0.0,4.0,78,0.00,,,0.00,WeatherCatV1.13B119,2013-02-12 05:31:00,
2013-02-11 23:36:00,25.4,19.8,30.09,WNW,292,2.0,2.0,79,0.00,,,0.00,WeatherCatV1.13B119,2013-02-12 05:36:00,
2013-02-11 23:41:00,25.4,19.8,30.09,West,275,0.0,3.0,79,0.00,,,0.00,WeatherCatV1.13B119,2013-02-12 05:41:00,
2013-02-11 23:46:00,25.3,20.0,30.09,West,274,2.0,2.0,80,0.00,,,0.00,WeatherCatV1.13B119,2013-02-12 05:46:00,
2013-02-11 23:51:00,25.3,20.0,30.09,West,274,1.0,1.0,80,0.00,,,0.00,WeatherCatV1.13B119,2013-02-12 05:51:00,
2013-02-11 23:56:00,25.1,20.1,30.09,West,273,0.0,3.0,81,0.00,,,0.00,WeatherCatV1.13B119,2013-02-12 05:56:00,